Regional Weather Roundup
Issued by NWS

Home | Current Version | Previous Version | Graphics & Text | Print | Product List | Glossary On
Versions: 1 2 3 4 5 6 7 8 9 10 11 12 13 14 15 16 17 18 19 20 21 22 23 24 25 26 27 28 29 30 31 32 33 34 35 36 37 38 39 40 41 42 43 44 45 46 47 48 49 50
000
ASUS43 KLOT 190308
RWRIL

ILLINOIS REGIONAL WEATHER ROUNDUP
NATIONAL WEATHER SERVICE CHICAGO/ROMEOVILLE IL
900 PM CST SUN FEB 18 2018

NOTE: "FAIR" INDICATES FEW OR NO CLOUDS BELOW 12,000 FEET WITH NO
SIGNIFICANT WEATHER AND/OR OBSTRUCTIONS TO VISIBILITY.

* THESE STATIONS ARE NOT UNDER NWS QUALITY CONTROL. THEY ALSO MAY NOT
  REPORT WEATHER SUCH AS PRECIPITATION OR FOG.

ILZ001-002-007-009-015-016-024-190400-
NORTHWEST ILLINOIS

CITY           SKY/WX    TMP DP  RH WIND       PRES   REMARKS
MOLINE         CLOUDY    41  31  67 SE13      29.80F
STERLING*      FAIR      38  32  79 SE7       29.85F WCI  33
SAVANNA*       FAIR      38  31  77 S8        29.85R WCI  32
$$

ILZ003-004-008-010-011-017-018-190400-
NORTH CENTRAL ILLINOIS

CITY           SKY/WX    TMP DP  RH WIND       PRES   REMARKS
ROCKFORD       MOCLDY    37  31  78 S21       29.87F WCI  26
FREEPORT*      FAIR      37  32  82 S24G30    29.84F WCI  25
ROCHELLE*      FAIR      37  32  84 S22       29.87F WCI  25
DE KALB*       FAIR      37  31  82 S23       29.88F WCI  25
PERU*          FAIR      37  31  79 S18G26    29.89F WCI  27
$$

ILZ005-006-012>014-019>023-190400-
NORTHEAST ILLINOIS

CITY           SKY/WX    TMP DP  RH WIND       PRES   REMARKS
CHICAGO-OHARE  CLOUDY    38  30  73 SE16      29.91F WCI  29
CHICAGO-MIDWAY CLOUDY    39  31  72 S13       29.93F WCI  31
AURORA         FAIR      39  30  70 SE16      29.90F WCI  30
LANSING*       FAIR      38  32  78 S14       29.96S WCI  30
JOLIET*        FAIR      39  32  77 SE9G16    29.93F WCI  32
WAUKEGAN       FAIR      38  31  76 S17G26    29.87F WCI  28
DUPAGE AIRPORT FAIR      37  31  78 S16G26    29.89F WCI  28
KANKAKEE*      FAIR      37  31  78 SE14      29.95F WCI  28
WHEELING       FAIR      39  31  72 S16       29.92F WCI  30
MORRIS*        FAIR      38  31  74 S17       29.92R WCI  29
ROMEOVILLE*    FAIR      38  31  78 S20       29.92F WCI  27
NORTHERLY ISL    N/A     38  30  73 SE14        N/A  WCI  30
$$

LMZ740>746-190400-
SOUTHERN LAKE MICHIGAN

STATION/POSITION SKY/WX   TEMP    WIND        PRES    VSBY  WAVE
                          AIR SEA DIR/SP/G                  HT/PER
                          (F)     (DEG/KT/KT) (MB)    (MI)  (FT/S)
HARRISON CRIB              38     170/ 18/ 20   N/A
BURNHAM HARBOR             38     170/ 12/ 15   N/A
CALUMET HARBOR             39     150/  9/ 17 1013.8F
BURNS HARBOR               40     170/ 14/ 25 1015.2S
MICHIGAN CITY              39     140/ 19/ 22   N/A
$$

ILZ025>027-034>036-040-047-049-050-058-095>099-190400-
WEST-CENTRAL ILLINOIS

CITY           SKY/WX    TMP DP  RH WIND       PRES   REMARKS
QUINCY         MOCLDY    46  28  49 S16       29.78F
GALESBURG*     MOCLDY    42  33  69 SE13G23   29.81F
MACOMB*        CLOUDY    42  32  67 S18G25    29.83F
JACKSONVILLE*  CLOUDY    45  32  60 SE22      29.86F
PITTSFIELD*    CLOUDY    46  34  63 S14       29.84S
$$

ILZ028>032-037-038-041>044-048-051>054-059>061-190400-
CENTRAL ILLINOIS

CITY           SKY/WX    TMP DP  RH WIND       PRES   REMARKS
PONTIAC        FAIR      40  35  83 S23G31    29.92R
BLOOMINGTON    FAIR      39  32  76 S26G32    29.90F WCI  28
DECATUR        FAIR      44  32  62 S21G29    29.94F
PEORIA         FAIR      41  33  73 S18G28    29.88S
LACON*         FAIR      40  32  74 S17G24    29.88S
LINCOLN*       FAIR      40  34  79 S15       29.91F
SPRINGFIELD    MOCLDY    45  35  68 SE17G29   29.90F
TAYLORVILLE    FAIR      44  33  66 SE18G28   29.92F
$$

ILZ033-039-045-046-055>057-062-063-190400-
EAST-CENTRAL ILLINOIS

CITY           SKY/WX    TMP DP  RH WIND       PRES   REMARKS
CHAMPAIGN      MOCLDY    41  33  73 SE17      29.96F
DANVILLE*      MOCLDY    37  31  77 SE9       29.98S WCI  31
RANTOUL*       FAIR      40  34  80 S14       29.97S
MATTOON        CLOUDY    45  33  63 S17       29.97F
PARIS*         CLOUDY    42  34  75 SE16      30.01F
$$

ILZ079-100>102-190400-
SOUTHWEST ILLINOIS

CITY           SKY/WX    TMP DP  RH WIND       PRES   REMARKS
ALTON          CLEAR     46  36  66 SE14      29.92F
BELLEVILLE     CLOUDY    49  35  58 S14       29.94F
CAHOKIA*       MOCLDY    49  35  58 S12G21    29.94S
SPARTA*        CLOUDY    50  38  62 S13G21    29.98F
$$

ILZ064>066-069>071-074>076-080>082-084>086-088>090-092>094-190400-
SOUTH-CENTRAL ILLINOIS

CITY           SKY/WX    TMP DP  RH WIND       PRES   REMARKS
CARBONDALE     CLOUDY    51  36  56 S14       30.00F
CAIRO*         CLOUDY    52  38  58 S6        30.04S
EFFINGHAM*     CLOUDY    46  35  67 SE14G22   30.01F
MARION         CLOUDY    51  33  51 S9        30.02S
MT. VERNON     CLOUDY    48  37  65 SE8       30.00F
CENTRALIA*     CLOUDY    49  37  63 SE9G17    29.97F
SALEM*         CLOUDY    49  35  58 SE8G17    29.98F
METROPOLIS*    CLOUDY    53  37  55 SE3       30.04F
$$

ILZ067-068-072-073-078-083-087-091-190400-
SOUTHEAST ILLINOIS

CITY           SKY/WX    TMP DP  RH WIND       PRES   REMARKS
LAWRENCEVILLE  CLOUDY    45  36  70 SE9       30.06F
FLORA*         CLOUDY    47  37  69 SE9       30.02F
FAIRFIELD*     CLOUDY    47  37  68 SE6       30.01F
HARRISBURG*    CLOUDY    49  38  65 SE8       30.03F
ROBINSON*      CLOUDY    45  34  65 SE12      30.05F
CARMI*         CLOUDY    46  38  75 SE8       30.03F
$$

ABBREVIATIONS USED IN REMARKS
   TC - TEMPERATURE IN CELSIUS
  WCI - WIND CHILL INDEX
   HX - HEAT INDEX
  VSB - VISIBILITY
$$





USA.gov is the U.S. government's official web portal to all federal, state and local government web resources and services.